Location: Gebenbach
(49.5378°N, 11.8735°E)
Time: 03:18:26
(UTC+00:00)

Cosmos 2082 - Pass Details

Date: 29 October 2020
Orbit: 832 x 857 km, 71.0° (Epoch: 27 November)

Event Time Altitude Azimuth Distance (km) Brightness Sun altitude
Rises 16:26:40 0° 334° (NNW) 3,436 7.0 -5.7°
Reaches altitude 10° 16:29:20 10° 343° (NNW) 2,499 6.2 -6.2°
Maximum altitude 16:34:37 36° 49° (NE) 1,327 4.3 -7.0°
Drops below altitude 10° 16:39:53 10° 116° (ESE) 2,489 5.7 -7.8°
Sets 16:42:32 0° 125° (SE) 3,421 6.4 -8.2°
